Buffalo, MN

7:32 PM CDT on April 22, 2018 (GMT -0500)
Buffalo

Weather History for KCFE - November, 2012

Change the Weather History Date:

Monday, November 5, 2012

  Actual Average (KMIC) Record (KMIC)
Temperature  
Mean Temperature 37 °F -  
Max Temperature 41 °F 45 °F 72 °F (2016)
Min Temperature 33 °F 29 °F 12 °F (1991)
Degree Days  
Heating Degree Days 28    
Moisture  
Dew Point 35 °F    
Average Humidity 92    
Maximum Humidity 97    
Minimum Humidity 85    
Precipitation  
Precipitation 0.00 in - - ()
Sea Level Pressure  
Sea Level Pressure 30.12 in    
Wind  
Wind Speed 6 mph (East)    
Max Wind Speed 10 mph    
Max Gust Speed -    
Visibility 6 miles    
Events Rain    
Averages and records for this station are not official NWS values.
T = Trace of Precipitation, MM = Missing Value Source: NWS Daily Summary

Daily Weather History Graph

Daily Weather History Graph

Search for Another Location

Airport or City:

Astronomy

Nov. 05, 2012 Rise Set
Actual Time 7:00 AM CST 4:56 PM CST
Civil Twilight 6:29 AM CST 5:28 PM CST
Nautical Twilight 5:54 AM CST 6:03 PM CST
Astronomical Twilight 5:19 AM CST 6:37 PM CST
Moon 10:35 PM CST (11/5) 12:20 PM CST (11/5)
Length of Visible Light 10h 58m
Length of Day
9h 56m
Waning Gibbous, 62% of the Moon is Illuminated
Nov 5
Waning Gibbous
Nov 6
Last Quarter
Nov 13
New
Nov 20
First Quarter
Nov 28
Full

Hourly Weather History & Observations

Time (CST) Temp. Windchill Dew Point Humidity Pressure Visibility Wind Dir Wind Speed Gust Speed Precip Events Conditions
12:13 AM 38.8 °F 33.2 °F 36.5 °F 91% 30.16 in 7.0 mi NE 8.1 mph - N/A   Overcast
12:33 AM 38.7 °F 34.3 °F 36.1 °F 91% 30.16 in 7.0 mi NE 5.8 mph - N/A   Overcast
12:53 AM 38.5 °F 33.4 °F 36.1 °F 91% 30.16 in 7.0 mi NE 6.9 mph - N/A   Overcast
1:13 AM 38.3 °F 32.5 °F 36.1 °F 92% 30.17 in 7.0 mi NE 8.1 mph - N/A   Overcast
1:33 AM 37.6 °F 32.3 °F 35.8 °F 93% 30.17 in 7.0 mi NE 6.9 mph - N/A   Overcast
1:53 AM 37.4 °F 31.4 °F 35.6 °F 93% 30.16 in 7.0 mi NE 8.1 mph - N/A   Overcast
2:13 AM 36.5 °F 29.7 °F 34.0 °F 91% 30.17 in 10.0 mi NE 9.2 mph - N/A   Overcast
2:33 AM 35.8 °F 29.4 °F 33.1 °F 90% 30.17 in 10.0 mi NE 8.1 mph - N/A   Overcast
2:53 AM 35.6 °F 29.2 °F 33.1 °F 91% 30.17 in 10.0 mi NE 8.1 mph - N/A   Overcast
3:13 AM 35.6 °F 29.2 °F 33.1 °F 91% 30.17 in 10.0 mi NE 8.1 mph - N/A   Overcast
3:33 AM 35.1 °F 29.3 °F 32.5 °F 91% 30.17 in 10.0 mi NE 6.9 mph - N/A   Overcast
3:53 AM 34.7 °F 29.6 °F 32.2 °F 91% 30.17 in 7.0 mi NE 5.8 mph - N/A   Light Drizzle
4:13 AM 34.3 °F 28.4 °F 32.2 °F 92% 30.17 in 7.0 mi NE 6.9 mph - N/A   Light Drizzle
4:33 AM 34.0 °F 28.0 °F 32.0 °F 92% 30.18 in 7.0 mi NE 6.9 mph - N/A   Light Drizzle
4:53 AM 33.8 °F 28.6 °F 32.0 °F 93% 30.18 in 7.0 mi NNE 5.8 mph - N/A   Light Drizzle
5:13 AM 33.8 °F 28.6 °F 32.0 °F 93% 30.18 in 7.0 mi NE 5.8 mph - N/A   Light Drizzle
5:33 AM 33.8 °F 28.6 °F 32.0 °F 93% 30.18 in 7.0 mi NE 5.8 mph - N/A   Light Drizzle
6:13 AM 33.8 °F 29.6 °F 32.0 °F 93% 30.18 in 7.0 mi NE 4.6 mph - N/A   Overcast
6:33 AM 33.8 °F 27.7 °F 32.2 °F 94% 30.19 in 7.0 mi NE 6.9 mph - N/A   Overcast
6:53 AM 33.8 °F 29.6 °F 32.2 °F 94% 30.19 in 7.0 mi NE 4.6 mph - N/A   Overcast
7:13 AM 33.3 °F 28.9 °F 32.0 °F 95% 30.19 in 5.0 mi NE 4.6 mph - N/A   Light Drizzle
7:33 AM 33.1 °F 27.7 °F 32.0 °F 96% 30.19 in 5.0 mi NE 5.8 mph - N/A   Light Drizzle
7:53 AM 33.1 °F 27.7 °F 32.2 °F 96% 30.19 in 5.0 mi NE 5.8 mph - N/A   Light Drizzle
8:13 AM 33.4 °F 29.1 °F 32.5 °F 96% 30.19 in 5.0 mi NE 4.6 mph - N/A   Light Drizzle
8:33 AM 33.8 °F 29.6 °F 32.9 °F 96% 30.20 in 5.0 mi NE 4.6 mph - N/A   Light Drizzle
8:53 AM 33.8 °F 30.8 °F 32.9 °F 96% 30.20 in 5.0 mi NE 3.5 mph - N/A   Overcast
9:13 AM 33.8 °F 30.8 °F 32.9 °F 96% 30.19 in 5.0 mi NE 3.5 mph - N/A Rain Light Rain
9:33 AM 34.2 °F - 33.3 °F 97% 30.20 in 5.0 mi Calm Calm - N/A   Overcast
9:53 AM 34.5 °F 30.4 °F 33.6 °F 97% 30.20 in 5.0 mi ENE 4.6 mph - N/A   Light Drizzle
10:13 AM 34.7 °F 29.6 °F 33.8 °F 97% 30.20 in 1.8 mi ENE 5.8 mph - N/A   Light Drizzle
10:33 AM 34.7 °F 31.8 °F 33.8 °F 97% 30.20 in 2.5 mi ENE 3.5 mph - N/A   Overcast
10:53 AM 35.2 °F 31.2 °F 34.3 °F 97% 30.20 in 4.0 mi ENE 4.6 mph - N/A   Overcast
11:13 AM 35.6 °F 31.7 °F 34.7 °F 97% 30.19 in 5.0 mi East 4.6 mph - N/A   Overcast
11:33 AM 36.5 °F 32.7 °F 34.9 °F 94% 30.19 in 5.0 mi ENE 4.6 mph - N/A   Overcast
11:53 AM 36.5 °F 32.7 °F 34.7 °F 93% 30.18 in 7.0 mi ENE 4.6 mph - N/A   Overcast
12:13 PM 37.4 °F - 35.2 °F 92% 30.17 in 10.0 mi Calm Calm - N/A   Overcast
12:33 PM 37.4 °F 33.8 °F 34.5 °F 89% 30.16 in 10.0 mi East 4.6 mph - N/A   Overcast
12:53 PM 38.3 °F - 35.2 °F 89% 30.15 in 10.0 mi Calm Calm - N/A   Overcast
1:13 PM 38.3 °F 35.9 °F 35.1 °F 88% 30.15 in 10.0 mi East 3.5 mph - N/A   Overcast
1:33 PM 39.2 °F - 35.6 °F 87% 30.15 in 10.0 mi Calm Calm - N/A   Overcast
1:53 PM 39.2 °F - 35.6 °F 87% 30.14 in 10.0 mi Calm Calm - N/A   Overcast
2:13 PM 39.4 °F 37.2 °F 35.8 °F 87% 30.13 in 10.0 mi East 3.5 mph - N/A   Overcast
2:33 PM 39.7 °F 36.5 °F 36.0 °F 86% 30.11 in 7.0 mi ESE 4.6 mph - N/A   Overcast
2:53 PM 40.1 °F 36.9 °F 35.8 °F 85% 30.11 in 7.0 mi ESE 4.6 mph - N/A   Overcast
3:13 PM 40.3 °F - 36.3 °F 86% 30.11 in 7.0 mi Calm Calm - N/A   Overcast
3:33 PM 40.3 °F 38.2 °F 36.5 °F 86% 30.10 in 7.0 mi SE 3.5 mph - N/A   Overcast
3:53 PM 40.1 °F 38.0 °F 36.3 °F 86% 30.11 in 7.0 mi SSE 3.5 mph - N/A   Overcast
4:13 PM 40.1 °F 38.0 °F 36.3 °F 86% 30.09 in 7.0 mi SE 3.5 mph - N/A   Overcast
4:33 PM 40.1 °F 38.0 °F 36.7 °F 88% 30.08 in 7.0 mi ESE 3.5 mph - N/A   Overcast
4:53 PM 40.1 °F - 36.9 °F 88% 30.08 in 7.0 mi Calm Calm - N/A   Overcast
5:13 PM 40.1 °F 38.0 °F 36.9 °F 88% 30.07 in 7.0 mi SE 3.5 mph - N/A   Overcast
5:33 PM 40.3 °F 37.1 °F 37.4 °F 89% 30.07 in 7.0 mi SE 4.6 mph - N/A   Overcast
5:53 PM 40.3 °F 37.1 °F 37.4 °F 89% 30.06 in 7.0 mi SSE 4.6 mph - N/A   Overcast
6:13 PM 40.8 °F 38.8 °F 37.9 °F 89% 30.06 in 5.0 mi SSE 3.5 mph - N/A   Overcast
6:33 PM 41.0 °F 39.0 °F 38.3 °F 90% 30.05 in 5.0 mi SSE 3.5 mph - N/A   Overcast
6:53 PM 41.2 °F 37.3 °F 38.3 °F 89% 30.05 in 5.0 mi South 5.8 mph - N/A   Overcast
7:13 PM 41.2 °F 38.2 °F 38.5 °F 90% 30.05 in 5.0 mi South 4.6 mph - N/A   Overcast
7:33 PM 41.0 °F 36.4 °F 38.7 °F 91% 30.04 in 4.0 mi South 6.9 mph - N/A   Overcast
7:53 PM 41.0 °F 36.4 °F 38.7 °F 91% 30.03 in 3.0 mi South 6.9 mph - N/A   Overcast
8:13 PM 41.0 °F 35.8 °F 39.2 °F 93% 30.02 in 4.0 mi South 8.1 mph - N/A   Overcast
8:33 PM 40.8 °F 36.2 °F 39.2 °F 94% 30.01 in 2.5 mi South 6.9 mph - N/A   Overcast
8:53 PM 40.5 °F 35.1 °F 39.2 °F 95% 30.00 in 2.5 mi South 8.1 mph - N/A   Drizzle
9:13 PM 40.3 °F 34.9 °F 39.2 °F 96% 30.00 in 2.0 mi SSW 8.1 mph - N/A   Heavy Drizzle
9:33 PM 39.6 °F 33.5 °F 38.5 °F 96% 29.99 in 3.0 mi SSW 9.2 mph - N/A   Drizzle
9:53 PM 39.4 °F 33.8 °F 38.3 °F 96% 29.98 in 4.0 mi SSW 8.1 mph - N/A Rain Light Rain
10:13 PM 39.2 °F 35.0 °F 38.3 °F 97% 29.96 in 4.0 mi SSW 5.8 mph - N/A Rain Light Rain
10:33 PM 39.2 °F 35.0 °F 38.3 °F 97% 29.95 in 3.0 mi SSW 5.8 mph - N/A Rain Light Rain
10:53 PM 39.2 °F 34.2 °F 38.3 °F 97% 29.95 in 7.0 mi SSW 6.9 mph - N/A   Overcast
11:13 PM 39.2 °F 33.6 °F 38.3 °F 97% 29.94 in 7.0 mi SSW 8.1 mph - N/A   Overcast
11:33 PM 39.2 °F 32.5 °F 37.8 °F 95% 29.94 in 5.0 mi SSW 10.4 mph - N/A   Overcast
11:53 PM 39.2 °F 34.2 °F 37.6 °F 94% 29.93 in 7.0 mi SSW 6.9 mph - N/A   Overcast